[[{"header":{"parameterUnit":"m.s-1","parameterCategory":1,"la1":30.2992,"la2":30.254,"lo1":-89.0895,"lo2":-89.0443,"dy":0.0025,"dx":0.0025,"nx":19,"ny":19,"refTime":"2026-05-01T09:00:00:Z","depth":0,"parameterNumber":2,"parameterNumberName":"U-component_of_WINDS"},"data":[0,0,0,-3.5236,-3.524,-3.5424,-3.5424,-3.5662,-3.5664,0,0,0,0,0,0,0,0,0,0,0,-3.5188,-3.519,-3.5236,-3.524,-3.5424,-3.5424,-3.5661,-3.5664,0,0,0,0,0,0,0,0,0,0,0,-3.5187,-3.519,-3.5192,-3.5241,-3.5424,-3.5425,-3.5661,-3.552,0,0,0,0,0,0,0,0,0,0,-3.5341,-3.5305,-3.5189,-3.5192,-3.5242,-3.5423,-3.5425,-3.5513,-3.5529,-3.5581,0,-3.5633,0,-3.5653,-3.568,-3.5681,0,0,0,-3.5235,-3.5292,-3.5336,-3.5192,-3.5244,-3.5423,-3.5339,-3.5522,-3.554,-3.5602,-3.5637,-3.5645,-3.5656,-3.5682,-3.5683,-3.6011,-3.6012,0,0,-3.5225,-3.5224,-3.5324,-3.5347,-3.5325,-3.5334,-3.5345,-3.5533,-3.5569,-3.5637,-3.5651,-3.566,-3.5684,-3.5685,-3.6009,-3.6011,0,0,0,-3.5199,-3.5217,-3.5256,-3.5338,-3.5371,-3.5339,-3.5352,-3.5561,-3.5573,-3.5653,-3.5663,-3.5685,-3.5688,-3.6007,-3.601,-3.6101,0,0,0,-3.5193,-3.5203,-3.5252,-3.5254,-3.5368,-3.5469,-3.5376,-3.5561,-3.5582,-3.5662,-3.5685,-3.569,-3.6005,-3.6009,-3.6094,-3.6144,0,0,0,-3.5174,-3.52,-3.5229,-3.5253,-3.5332,-3.5466,-3.549,-3.5565,-3.5588,-3.5681,-3.5691,-3.6004,-3.6008,-3.6088,-3.6135,-3.6231,0,0,0,-3.5153,-3.5307,-3.5231,-3.5406,-3.5331,-3.5522,-3.5489,-3.563,-3.572,-3.5686,-3.6006,-3.601,-3.6086,-3.6129,-3.6225,-3.6314,-3.6351,0,0,-3.5347,-3.5331,-3.5433,-3.537,-3.5575,-3.5493,-3.5709,-3.5791,-3.5798,-3.5938,-3.5946,-3.6096,-3.6134,-3.623,-3.6554,-3.6583,0,0,0,-3.5495,-3.5569,-3.5623,-3.5711,-3.5777,-3.5838,-3.5886,-3.5915,-3.6034,-3.5872,-3.6156,-3.6178,-3.6234,-3.6277,-3.6302,-3.635,-3.6029,-3.6028,-3.6028,-3.5772,-3.5773,-3.5943,-3.5965,-3.6049,-3.6096,-3.6163,-3.621,-3.6186,-3.6252,-3.6296,-3.6492,-3.6542,-3.6561,-3.661,-3.634,-3.6341,-3.6341,-3.6341,-3.6058,-3.6164,-3.6126,-3.6278,-3.6276,-3.6401,-3.6448,-3.6426,-3.654,-3.6461,-3.651,-3.6426,-3.6593,-3.6636,-3.6348,-3.6347,-3.6346,-3.6345,-3.6345,-3.6243,-3.6294,-3.6326,-3.645,-3.6543,-3.6557,-3.6668,-3.6661,-3.6655,-3.6703,-3.6747,-3.6745,-3.6744,-3.6724,-3.6725,-3.6725,-3.6726,-3.6726,-3.6727,-3.6423,-3.6457,-3.6553,-3.6633,-3.6686,-3.6754,-3.6797,-3.6848,-3.6901,-3.6887,-3.6887,-3.6856,-3.6609,-3.6548,-3.6738,-3.6736,-3.6734,-3.6733,-3.6733,-3.6718,-3.6649,-3.6798,-3.6851,-3.6941,-3.7033,-3.702,-3.7122,-3.7162,-3.7216,-3.7171,-3.699,-3.6972,-3.6952,-3.6902,-3.7171,-3.7171,-3.7171,-3.7171,-3.6876,-3.6864,-3.7014,-3.7098,-3.7178,-3.718,-3.7343,-3.7375,-3.7397,-3.7421,-3.7379,-3.7311,-3.7291,-3.7285,-3.7257,-3.7211,-3.7552,-3.7553,-3.7553,-3.7057,-3.7053,-3.7197,-3.7219,-3.7287,-3.7344,-3.7496,-3.759,-3.76,-3.7568,-3.7438,-3.7422,-3.7312,-3.7276,-3.7246,-3.7204,-3.7118,0,0]},{"header":{"parameterUnit":"m.s-1","parameterCategory":1,"la1":30.2992,"la2":30.254,"lo1":-89.0895,"lo2":-89.0443,"dy":0.0025,"dx":0.0025,"nx":19,"ny":19,"refTime":"2026-05-01T09:00:00:Z","depth":0,"parameterNumber":3,"parameterNumberName":"V-component_of_WINDS"},"data":[0,0,0,-11.6429,-11.6431,-11.6499,-11.6498,-11.6645,-11.6647,0,0,0,0,0,0,0,0,0,0,0,-11.6446,-11.6448,-11.6429,-11.6432,-11.6499,-11.6498,-11.6644,-11.6647,0,0,0,0,0,0,0,0,0,0,0,-11.6445,-11.6448,-11.6451,-11.6432,-11.6499,-11.6498,-11.6644,-11.6572,0,0,0,0,0,0,0,0,0,0,-11.6496,-11.6548,-11.6447,-11.6451,-11.6433,-11.6499,-11.6498,-11.6567,-11.6576,-11.664,0,-11.6708,0,-11.668,-11.666,-11.6661,0,0,0,-11.6404,-11.6541,-11.6526,-11.6451,-11.6434,-11.6499,-11.6461,-11.6572,-11.6582,-11.6653,-11.6709,-11.6713,-11.6682,-11.6662,-11.6663,-11.7125,-11.7129,0,0,-11.64,-11.6478,-11.6519,-11.6534,-11.6528,-11.6459,-11.6463,-11.6577,-11.6643,-11.6709,-11.6715,-11.6685,-11.6663,-11.6665,-11.7122,-11.7126,0,0,0,-11.6408,-11.6477,-11.6457,-11.653,-11.6538,-11.6461,-11.6466,-11.6638,-11.6625,-11.6716,-11.6686,-11.6664,-11.6667,-11.7118,-11.7124,-11.7371,0,0,0,-11.6405,-11.6481,-11.6457,-11.6506,-11.6537,-11.6589,-11.6526,-11.6617,-11.6628,-11.6686,-11.6664,-11.6669,-11.7114,-11.7121,-11.7356,-11.7476,0,0,0,-11.6429,-11.6484,-11.6506,-11.651,-11.6541,-11.6585,-11.6578,-11.6618,-11.6611,-11.6661,-11.6669,-11.7112,-11.712,-11.7342,-11.7453,-11.7621,0,0,0,-11.6478,-11.6725,-11.6511,-11.6775,-11.6541,-11.6738,-11.6576,-11.6718,-11.6791,-11.6665,-11.7115,-11.7123,-11.7338,-11.7439,-11.7607,-11.7778,-11.7856,0,0,-11.6833,-11.6771,-11.692,-11.673,-11.6985,-11.6721,-11.7011,-11.7003,-11.6936,-11.7066,-11.7076,-11.7361,-11.7452,-11.7618,-11.8263,-11.8326,0,0,0,-11.7059,-11.7167,-11.7217,-11.729,-11.729,-11.73,-11.7239,-11.7236,-11.7343,-11.7019,-11.7463,-11.7515,-11.761,-11.7688,-11.7741,-11.7818,-11.7162,-11.7161,-11.716,-11.7675,-11.7576,-11.7816,-11.7726,-11.7798,-11.7733,-11.7783,-11.7767,-11.7646,-11.7753,-11.7792,-11.8195,-11.8289,-11.8329,-11.841,-11.7872,-11.7873,-11.7874,-11.7875,-11.8188,-11.8326,-11.8158,-11.8332,-11.8226,-11.837,-11.8317,-11.8226,-11.8346,-11.8158,-11.8236,-11.8041,-11.84,-11.8466,-11.7892,-11.7889,-11.7887,-11.7885,-11.7884,-11.8582,-11.8631,-11.8623,-11.8717,-11.8801,-11.8699,-11.8822,-11.872,-11.8625,-11.8703,-11.8733,-11.8729,-11.8713,-11.8724,-11.8726,-11.8727,-11.8728,-11.8729,-11.873,-11.8995,-11.8977,-11.9093,-11.9114,-11.9146,-11.9177,-11.9114,-11.9143,-11.9151,-11.9067,-11.9067,-11.8937,-11.8453,-11.8335,-11.8751,-11.8748,-11.8745,-11.8743,-11.8741,-11.9556,-11.9412,-11.9591,-11.9625,-11.9639,-11.973,-11.9598,-11.9668,-11.9677,-11.9741,-11.9593,-11.9252,-11.9181,-11.9138,-11.9039,-11.9613,-11.9613,-11.9613,-11.9613,-11.989,-11.9843,-12.0002,-12.0062,-12.0109,-12.0007,-12.0214,-12.0167,-12.0096,-12.0096,-11.9998,-11.9858,-11.9818,-11.977,-11.9713,-11.962,-12.0328,-12.0329,-12.033,-12.0229,-12.0182,-12.0377,-12.0304,-12.0308,-12.0315,-12.0505,-12.0581,-12.0471,-12.0357,-12.0094,-12.0064,-11.9836,-11.9767,-11.965,-11.9564,-11.939,0,0]}]]